CW2340 Weather Reports


time (UTC)temp
C
wind
direction
speed
KPH
gust
KPH
rain 1hr
cm
rain 24hr
cm
rain mn
cm
humidity
%
barometer
mb
20260507054504 10 51 0.0 0.0 0.00 1.27 0.00 99 991.0
20260507053504 10 51 0.0 1.6 0.00 1.27 0.00 99 991.0
20260507053005 10 7 0.0 1.6 0.00 1.27 0.00 99 990.9
20260507052504 10 7 0.0 3.2 0.00 1.27 0.00 99 990.9
20260507052004 10 53 0.0 3.2 0.00 1.27 0.00 99 991.0
20260507051504 10 272 0.0 1.6 0.00 1.27 0.00 99 990.9
20260507051003 10 346 0.0 0.0 0.00 1.27 0.00 99 991.2
20260507050504 10 346 0.0 1.6 0.00 1.27 0.00 99 991.2
20260507050004 10 353 0.0 1.6 0.00 1.27 0.00 99 991.4
20260507045504 10 354 0.0 1.6 0.00 1.27 0.00 99 991.4
20260507045004 10 339 0.0 1.6 0.00 1.27 0.00 99 991.7
20260507044503 10 12 0.0 3.2 0.00 1.27 0.00 99 991.6
20260507044004 10 355 0.0 1.6 0.03 1.27 0.00 99 991.6
20260507043504 10 358 0.0 1.6 0.05 1.27 0.00 99 991.2
20260507043004 10 6 1.6 1.6 0.05 1.27 0.00 99 991.0
20260507042505 10 325 0.0 1.6 0.05 1.27 0.00 99 991.1
20260507042004 10 311 0.0 3.2 0.08 1.27 0.00 99 990.9
20260507040504 10 332 0.0 0.0 0.10 1.27 0.00 99 991.0
20260507040004 10 166 0.0 0.0 0.13 1.27 0.00 99 991.4
20260507035505 10 256 0.0 1.6 0.15 1.27 1.27 99 991.6
20260507035004 10 251 0.0 1.6 0.20 1.27 1.27 99 991.5
20260507034504 11 123 0.0 1.6 0.25 1.27 1.27 99 991.1
20260507034004 11 7 0.0 4.8 0.25 1.27 1.27 99 991.2
20260507033504 11 47 1.6 3.2 0.23 1.22 1.22 99 991.1
20260507033004 11 344 0.0 1.6 0.25 1.22 1.22 99 991.2
20260507032504 11 342 1.6 3.2 0.25 1.22 1.22 99 991.2
20260507032004 11 6 0.0 1.6 0.25 1.22 1.22 99 991.3
20260507031504 11 325 1.6 3.2 0.30 1.22 1.22 99 991.4
20260507031004 12 279 0.0 3.2 0.28 1.17 1.17 99 991.4
20260507030004 12 254 0.0 1.6 0.25 1.14 1.14 99 991.3
20260507025504 12 328 0.0 3.2 0.23 1.12 1.12 99 991.0
20260507025004 12 6 0.0 1.6 0.18 1.09 1.09 99 991.1
20260507024504 12 341 0.0 1.6 0.13 1.04 1.04 99 990.9
20260507024004 12 353 0.0 9.7 0.10 0.99 0.99 99 991.1
20260507023504 12 20 1.6 9.7 0.10 0.99 0.99 99 990.9
20260507023004 12 346 1.6 4.8 0.08 0.97 0.97 99 990.7
20260507022504 13 357 3.2 4.8 0.08 0.97 0.97 99 990.7
20260507021504 14 214 1.6 8.0 0.00 0.89 0.89 99 990.3
20260507021004 14 280 1.6 8.0 0.00 0.89 0.89 99 990.4
20260507020504 14 263 1.6 9.7 0.00 0.89 0.89 99 990.3
20260507020004 14 347 1.6 12.9 0.00 0.89 0.89 99 990.3
20260507015504 14 220 1.6 9.7 0.00 0.89 0.89 99 990.4
20260507015004 14 286 1.6 9.7 0.00 0.89 0.89 99 990.2
20260507014004 14 257 1.6 3.2 0.00 0.89 0.89 99 990.4
20260507013504 14 152 1.6 9.7 0.00 0.89 0.89 99 990.4
20260507013004 14 302 1.6 4.8 0.00 0.89 0.89 99 990.3
20260507012504 14 268 1.6 4.8 0.00 0.89 0.89 99 990.2
20260507012004 14 253 0.0 9.7 0.00 0.89 0.89 99 990.4
20260507011504 14 344 1.6 8.0 0.00 0.89 0.89 99 990.3
20260507011004 14 222 3.2 8.0 0.00 0.89 0.89 99 990.2
20260507010004 14 252 1.6 8.0 0.00 0.89 0.89 99 990.0
20260507005504 14 273 3.2 16.1 0.00 0.89 0.89 99 990.0
20260507005004 14 260 3.2 16.1 0.00 0.89 0.89 99 989.9
20260507004504 14 245 1.6 14.5 0.00 0.89 0.89 99 989.9
20260507004004 14 95 1.6 9.7 0.00 0.89 0.89 99 990.1
20260507003004 14 208 3.2 12.9 0.00 0.89 0.89 99 990.1
20260507002504 14 184 3.2 11.3 0.00 0.89 0.89 99 990.3
20260507002004 14 188 3.2 11.3 0.00 0.89 0.89 99 990.1
20260507001504 14 146 3.2 9.7 0.00 0.89 0.89 99 990.2
20260507001005 14 34 1.6 9.7 0.00 0.89 0.89 99 990.2
20260507000505 14 219 1.6 11.3 0.00 0.89 0.89 99 990.2
20260507000004 14 143 1.6 8.0 0.00 0.89 0.89 99 990.2
20260506235504 14 178 4.8 9.7 0.00 0.89 0.89 99 990.3
20260506235004 14 224 3.2 9.7 0.00 0.89 0.89 99 990.0
20260506234004 14 276 4.8 9.7 0.00 0.89 0.89 99 989.9
20260506233504 14 170 3.2 9.7 0.00 0.89 0.89 99 990.1
20260506233004 14 243 1.6 8.0 0.03 0.89 0.89 99 989.8
20260506232504 14 259 3.2 11.3 0.05 0.89 0.89 99 989.8
20260506232004 14 209 1.6 8.0 0.08 0.89 0.89 99 989.6
20260506231004 14 275 1.6 4.8 0.08 0.89 0.89 99 989.6
20260506230504 14 215 1.6 9.7 0.10 0.89 0.89 99 989.6
20260506230004 14 172 1.6 9.7 0.10 0.89 0.89 99 989.6
20260506224504 13 268 1.6 14.5 0.15 0.89 0.89 99 989.6
20260506223504 14 187 1.6 8.0 0.15 0.89 0.89 98 989.4
20260506223005 14 118 1.6 3.2 0.13 0.86 0.86 98 989.5
20260506222004 14 225 3.2 8.0 0.08 0.81 0.81 98 989.7
20260506221504 14 214 1.6 11.3 0.08 0.81 0.81 98 989.5
20260506221004 14 351 1.6 4.8 0.08 0.81 0.81 98 989.6
20260506220504 14 242 0.0 4.8 0.08 0.79 0.79 98 989.5
20260506220004 14 240 3.2 9.7 0.08 0.79 0.79 98 989.5
20260506215504 14 182 1.6 11.3 0.05 0.74 0.74 98 989.6
20260506215004 14 237 1.6 9.7 0.05 0.74 0.74 98 989.7
20260506214505 14 219 1.6 8.0 0.08 0.74 0.74 98 989.3
20260506214004 14 237 1.6 4.8 0.10 0.74 0.74 98 989.6
20260506213504 14 240 1.6 8.0 0.10 0.74 0.74 98 989.7
20260506213004 14 156 1.6 8.0 0.13 0.74 0.74 98 989.6
20260506212503 14 194 4.8 9.7 0.13 0.74 0.74 98 989.7
20260506211504 14 188 1.6 4.8 0.15 0.74 0.74 98 989.7
20260506210504 14 229 1.6 4.8 0.13 0.71 0.71 98 989.8
20260506210004 14 216 1.6 9.7 0.15 0.71 0.71 98 989.9
20260506205504 14 249 1.6 4.8 0.13 0.69 0.69 98 990.1
20260506205004 14 226 1.6 4.8 0.13 0.69 0.69 98 990.1
20260506204504 14 186 3.2 9.7 0.10 0.66 0.66 98 990.0
20260506204004 14 235 1.6 8.0 0.10 0.64 0.64 97 990.0
20260506203504 14 212 1.6 9.7 0.10 0.64 0.64 97 990.0
20260506203004 14 160 3.2 9.7 0.08 0.61 0.61 97 990.2
20260506202504 14 185 1.6 9.7 0.08 0.61 0.61 97 990.1
20260506202004 14 192 3.2 9.7 0.08 0.61 0.61 97 990.0
20260506201504 14 186 3.2 11.3 0.05 0.58 0.58 97 990.2
20260506201004 15 179 1.6 3.2 0.05 0.58 0.58 97 990.0
20260506200504 14 178 1.6 11.3 0.05 0.58 0.58 97 990.2
20260506195004 14 203 3.2 9.7 0.10 0.56 0.56 96 990.2
20260506194504 14 220 6.4 12.9 0.10 0.56 0.56 96 990.4
20260506194003 15 211 1.6 8.0 0.08 0.53 0.53 97 990.4
20260506193504 15 202 1.6 8.0 0.10 0.53 0.53 97 990.5
20260506192504 14 253 1.6 12.9 0.10 0.53 0.53 96 990.5
20260506192004 14 196 4.8 11.3 0.13 0.53 0.53 96 990.6
20260506191005 14 236 3.2 8.0 0.15 0.53 0.53 96 990.8
20260506190504 14 237 1.6 9.7 0.15 0.53 0.53 96 990.6
20260506190005 14 230 3.2 12.9 0.13 0.51 0.51 96 990.6
20260506185504 14 228 4.8 16.1 0.15 0.51 0.51 96 990.9
20260506185004 14 150 4.8 11.3 0.13 0.46 0.46 96 991.1
20260506184504 14 139 3.2 12.9 0.15 0.46 0.46 96 991.2
20260506184004 14 158 4.8 12.9 0.18 0.46 0.46 95 991.0
20260506183503 14 203 3.2 14.5 0.23 0.43 0.43 95 990.9
20260506183005 14 139 3.2 9.7 0.28 0.43 0.43 95 990.8
20260506182504 14 250 1.6 12.9 0.33 0.43 0.43 95 990.6
20260506182004 14 189 3.2 12.9 0.36 0.41 0.41 95 990.7
20260506181504 14 155 3.2 9.7 0.38 0.41 0.41 95 990.6
20260506180504 15 154 1.6 8.0 0.38 0.38 0.38 94 990.9
20260506180005 15 206 3.2 9.7 0.38 0.38 0.38 94 991.3
20260506175004 15 207 3.2 4.8 0.33 0.33 0.33 94 991.3
20260506174004 15 189 3.2 9.7 0.28 0.28 0.28 93 991.6
20260506173504 15 37 1.6 8.0 0.20 0.20 0.20 92 991.9
20260506173004 15 200 1.6 4.8 0.15 0.15 0.15 91 991.8
20260506172504 16 206 3.2 12.9 0.10 0.10 0.10 90 991.8
20260506172004 16 179 1.6 3.2 0.05 0.05 0.05 89 991.9
20260506171504 16 292 0.0 4.8 0.03 0.03 0.03 87 992.2
20260506171004 16 191 1.6 9.7 0.03 0.03 0.03 85 992.2
20260506170504 17 248 3.2 8.0 0.00 0.00 0.00 82 992.3
20260506170004 17 204 3.2 11.3 0.00 0.00 0.00 80 992.3
20260506164504 18 264 8.0 33.8 0.00 0.00 0.00 72 992.1
20260506164004 19 34 4.8 12.9 0.00 0.00 0.00 71 991.8
20260506163004 19 237 6.4 14.5 0.00 0.00 0.00 70 991.8
20260506162504 19 221 4.8 16.1 0.00 0.00 0.00 70 991.8
20260506162004 19 226 3.2 12.9 0.00 0.00 0.00 70 991.9
20260506161504 19 260 3.2 16.1 0.00 0.00 0.00 71 992.1
20260506161005 19 146 4.8 16.1 0.00 0.00 0.00 70 992.0
20260506160004 18 279 4.8 22.5 0.00 0.00 0.00 71 992.2
20260506155504 19 184 4.8 16.1 0.00 0.00 0.00 70 992.3
20260506155004 19 284 4.8 22.5 0.00 0.00 0.00 70 992.4
20260506154004 19 223 4.8 20.9 0.00 0.00 0.00 69 992.3
20260506153504 19 179 8.0 20.9 0.00 0.00 0.00 68 992.3
20260506153004 19 270 3.2 12.9 0.00 0.00 0.00 69 992.4
20260506152504 20 306 4.8 16.1 0.00 0.00 0.00 68 992.2
20260506152004 20 206 3.2 11.3 0.00 0.00 0.00 68 992.3
20260506151504 20 199 3.2 12.9 0.00 0.00 0.00 69 992.3
20260506151004 20 114 4.8 29.0 0.00 0.00 0.00 68 992.4
20260506150505 20 219 1.6 16.1 0.00 0.00 0.00 69 992.4
20260506150005 19 240 4.8 19.3 0.00 0.00 0.00 69 992.3
20260506144004 19 253 4.8 11.3 0.00 0.00 0.00 69 992.6
20260506143504 19 302 3.2 12.9 0.00 0.00 0.00 70 992.6
20260506143004 19 249 4.8 14.5 0.00 0.00 0.00 69 992.7
20260506142004 19 326 4.8 19.3 0.00 0.00 0.00 70 992.7
20260506141004 18 225 4.8 16.1 0.00 0.00 0.00 72 992.7
20260506140504 18 184 4.8 20.9 0.00 0.00 0.00 72 992.7
20260506140005 18 240 4.8 12.9 0.00 0.00 0.00 72 992.6
20260506135504 18 322 3.2 11.3 0.00 0.00 0.00 73 992.6
20260506135004 18 12 4.8 19.3 0.00 0.00 0.00 73 992.5
20260506134504 18 209 3.2 12.9 0.00 0.00 0.00 74 992.5
20260506134004 18 228 6.4 12.9 0.00 0.00 0.00 73 992.3
20260506133504 18 251 4.8 12.9 0.00 0.00 0.00 74 992.5
20260506133004 18 206 4.8 12.9 0.00 0.00 0.00 74 992.5
20260506132504 18 246 3.2 9.7 0.00 0.00 0.00 74 992.6
20260506132005 18 197 4.8 20.9 0.00 0.00 0.00 75 992.8
20260506131504 18 181 4.8 16.1 0.00 0.00 0.00 75 992.7
20260506131004 18 188 3.2 12.9 0.00 0.00 0.00 77 992.6
20260506130505 17 212 3.2 11.3 0.00 0.00 0.00 77 992.8
20260506130005 17 171 3.2 8.0 0.00 0.00 0.00 77 993.1
20260506125004 17 199 3.2 12.9 0.00 0.00 0.00 78 993.1
20260506124504 17 241 4.8 24.1 0.00 0.00 0.00 78 993.3
20260506124004 17 197 8.0 24.1 0.00 0.00 0.00 78 993.3
20260506123504 17 217 4.8 22.5 0.00 0.00 0.00 78 993.2
20260506123004 17 211 4.8 16.1 0.00 0.00 0.00 77 993.4
20260506122504 18 233 3.2 12.9 0.00 0.00 0.00 76 993.3
20260506122004 17 259 4.8 12.9 0.00 0.00 0.00 79 993.0
20260506121504 17 166 4.8 19.3 0.00 0.00 0.00 80 993.1
20260506121004 17 242 3.2 11.3 0.00 0.00 0.00 80 993.2
20260506120005 16 230 4.8 14.5 0.00 0.00 0.00 81 993.1
20260506115505 16 244 4.8 16.1 0.00 0.00 0.00 81 993.2
20260506115005 16 194 6.4 25.7 0.00 0.00 0.00 81 993.1
20260506114504 16 176 3.2 14.5 0.00 0.00 0.00 82 993.1
20260506114005 16 201 4.8 11.3 0.00 0.00 0.00 83 993.0
20260506113504 16 173 4.8 11.3 0.00 0.00 0.00 83 992.9
20260506113004 16 240 1.6 11.3 0.00 0.00 0.00 83 992.9
20260506112004 16 262 3.2 12.9 0.00 0.00 0.00 83 993.2
20260506111504 15 329 3.2 14.5 0.00 0.00 0.00 84 993.6
20260506110504 15 177 4.8 12.9 0.00 0.00 0.00 86 993.4
20260506110004 15 191 3.2 12.9 0.00 0.00 0.00 86 993.5
20260506105504 15 186 4.8 11.3 0.00 0.00 0.00 86 993.3
20260506104504 15 253 1.6 9.7 0.00 0.00 0.00 85 993.2
20260506104004 15 173 1.6 12.9 0.00 0.00 0.00 85 993.1
20260506103505 15 206 1.6 14.5 0.00 0.00 0.00 86 993.1
20260506103004 14 179 4.8 12.9 0.00 0.00 0.00 87 993.1
20260506102504 14 160 1.6 4.8 0.00 0.00 0.00 87 993.3
20260506102005 14 175 3.2 11.3 0.00 0.00 0.00 87 993.3
20260506101504 14 149 1.6 8.0 0.00 0.00 0.00 87 993.2
20260506100504 14 174 3.2 9.7 0.00 0.00 0.00 87 993.1
20260506100004 14 249 1.6 9.7 0.00 0.00 0.00 87 993.0
20260506095505 14 248 1.6 9.7 0.00 0.00 0.00 87 993.1
20260506095004 14 153 3.2 11.3 0.00 0.00 0.00 87 993.2
20260506094504 14 173 1.6 9.7 0.00 0.00 0.00 87 993.2
20260506094004 14 137 4.8 16.1 0.00 0.00 0.00 87 993.1
20260506093504 14 226 1.6 9.7 0.00 0.00 0.00 87 993.0
20260506092504 14 288 3.2 16.1 0.00 0.00 0.00 86 993.0
20260506092004 14 181 3.2 12.9 0.00 0.00 0.00 87 992.9
20260506091504 14 182 3.2 8.0 0.00 0.00 0.00 87 993.0
20260506091004 14 225 3.2 12.9 0.00 0.00 0.00 87 993.0
20260506090505 14 180 1.6 8.0 0.00 0.00 0.00 86 993.0
20260506090004 14 190 1.6 4.8 0.00 0.00 0.00 86 993.0
20260506085504 14 256 1.6 11.3 0.00 0.00 0.00 86 993.1
20260506085004 14 184 3.2 11.3 0.00 0.00 0.00 86 993.2
20260506084505 14 202 1.6 8.0 0.00 0.00 0.00 86 993.3
20260506084004 14 223 1.6 9.7 0.00 0.00 0.00 85 993.2
20260506083504 14 190 1.6 9.7 0.00 0.00 0.00 85 993.3
20260506083004 14 187 1.6 8.0 0.00 0.00 0.00 85 993.3
20260506082504 15 158 3.2 11.3 0.00 0.00 0.00 84 993.1
20260506081504 15 174 1.6 11.3 0.00 0.00 0.00 84 993.1
20260506081005 15 249 1.6 9.7 0.00 0.00 0.00 84 993.2
20260506080504 15 153 3.2 11.3 0.00 0.00 0.00 83 993.2
20260506073504 15 176 6.4 14.5 0.00 0.00 0.00 81 993.1
20260506073004 15 263 1.6 9.7 0.00 0.00 0.00 81 993.3
20260506072504 15 182 3.2 11.3 0.00 0.00 0.00 81 993.3
20260506072003 15 209 4.8 16.1 0.00 0.00 0.00 81 993.5
20260506071004 15 189 1.6 4.8 0.00 0.00 0.00 81 993.2
20260506070504 15 207 3.2 11.3 0.00 0.00 0.00 81 993.2
20260506062504 15 273 1.6 8.0 0.00 0.00 0.00 79 993.1
20260506062004 15 116 1.6 9.7 0.00 0.00 0.00 79 993.2
20260506061504 15 193 1.6 12.9 0.00 0.00 0.00 79 993.3
20260506061004 16 105 4.8 12.9 0.00 0.00 0.00 78 993.1
20260506060504 16 174 1.6 9.7 0.00 0.00 0.00 78 993.3